Location: Edinburgh
(55.9500°N, 3.1600°W)
Time: 19:49:38
(UTC+01:00)

Vanguard 3 - All Passes

Search period start: 23 October 2017 00:00
Search period end: 01 November 2017 23:00
Orbit: 510 x 3263 km, 33.3° (Epoch: 22 October)

Date Brightness Start Highest point End Pass type
(mag) Time Alt. Az. Time Alt. Az. Time Alt. Az.
23 Oct - 03:14:20 10° S 03:19:39 13° SSE 03:24:15 10° SE visible
23 Oct - 05:23:09 10° SSW 05:31:21 19° S 05:37:27 10° SE visible
23 Oct - 07:36:59 10° SW 07:42:16 15° SSW 07:46:24 10° SSE daylight
24 Oct - 04:08:26 10° SSW 04:17:27 18° SSE 04:24:21 10° SE visible
24 Oct - 06:20:51 10° SW 06:28:57 19° S 06:34:51 10° SSE visible
24 Oct - 08:37:42 10° SW 08:39:16 11° SSW 08:40:43 10° SSW daylight
25 Oct - 02:54:48 10° S 03:03:18 16° SSE 03:10:14 10° SE visible
25 Oct - 05:05:13 10° SW 05:15:13 22° S 05:22:27 10° SE visible
25 Oct - 07:19:39 10° SW 07:26:17 17° SSW 07:31:17 10° SSE visible
26 Oct - 01:43:22 10° SSE 01:49:03 12° SSE 01:54:10 10° SE visible
26 Oct - 03:50:10 10° SSW 04:01:08 22° SSE 04:09:22 10° SE visible
26 Oct - 06:03:17 10° SW 06:12:51 22° S 06:19:40 10° SE visible
26 Oct - 08:20:12 10° SW 08:23:14 12° SW 08:25:53 10° SSW daylight
27 Oct - 02:36:02 10° SSW 02:46:48 19° SSE 02:55:27 10° ESE visible
27 Oct - 04:47:23 10° SW 04:58:58 24° S 05:07:14 10° SE visible
27 Oct - 07:02:20 10° WSW 07:10:10 18° SSW 07:15:59 10° SSE visible
28 Oct - 01:23:30 10° S 01:32:24 15° SSE 01:40:10 10° ESE visible
28 Oct - 03:32:05 10° SW 03:44:42 25° S 03:54:08 10° ESE visible
28 Oct - 05:45:44 10° WSW 05:56:36 24° SSW 06:04:19 10° SE visible
28 Oct - 08:03:00 10° WSW 08:07:05 12° SW 08:10:33 10° SSW daylight
29 Oct - 00:15:45 10° SE 00:18:07 10° SE 00:20:25 10° SE visible
29 Oct - 01:17:40 10° SSW 01:30:11 22° SSE 01:40:14 10° ESE visible
29 Oct - 03:29:39 10° SW 03:42:34 27° S 03:51:50 10° SE visible
29 Oct - 05:45:00 10° WSW 05:53:56 20° SSW 06:00:31 10° SSE visible
30 Oct - 00:04:37 10° S 00:15:38 18° SSE 00:25:13 10° ESE visible
30 Oct - 02:14:13 10° SW 02:28:08 27° S 02:38:40 10° ESE visible
30 Oct - 04:28:13 10° WSW 04:40:15 25° SSW 04:48:49 10° SE visible
30 Oct - 06:45:54 10° WSW 06:50:49 13° SW 06:54:55 10° SSW daylight
30 Oct - 22:54:08 10° SSE 23:01:13 13° SE 23:07:55 10° ESE visible
31 Oct - 00:59:38 10° SSW 01:13:26 25° SSE 01:24:45 10° ESE visible
31 Oct - 03:12:02 10° SW 03:26:03 29° S 03:36:16 10° SE visible
31 Oct - 05:27:41 10° WSW 05:37:33 20° SSW 05:44:53 10° SSE visible
31 Oct - 23:46:17 10° S 23:58:44 21° SSE 00:09:49 10° ESE visible
01 Nov - 01:56:30 10° SW 02:11:26 30° S 02:23:01 10° ESE visible
01 Nov - 04:10:45 10° WSW 04:23:45 27° SSW 04:33:09 10° SSE visible
01 Nov - 06:28:50 10° WSW 06:34:24 13° SW 06:39:03 10° SSW visible
